Regional Weather Roundup
Issued by NWS

Home | Current Version | Previous Version | Text Only | Print | Product List | Glossary On
Versions: 1 2 3 4 5 6 7 8 9 10 11 12 13 14 15 16 17 18 19 20 21 22 23 24 25 26 27 28 29 30 31 32 33 34 35 36 37 38 39 40 41 42 43 44 45 46 47 48 49 50
000
ASUS43 KDTX 181210
RWRMI
MICHIGAN HOURLY REGIONAL WEATHER ROUNDUP
NATIONAL WEATHER SERVICE DETROIT/PONTIAC MI
800 AM EDT THU SEP 18 2014

NOTE: "FAIR" INDICATES FEW OR NO CLOUDS BELOW 12,000 FEET WITH NO
SIGNIFICANT WEATHER AND/OR OBSTRUCTION TO VISIBILITY.

MIZ047>049-052>055-059>063-066>070-074>076-081>083-181300-
SOUTHEAST LOWER MICHIGAN

CITY           SKY/WX    TMP DP  RH WIND       PRES   REMARKS
ADRIAN         CLEAR     46  43  89 N7        30.11R FOG
6HR MIN TEMP:  44; 6HR MAX TEMP:  48;

ALMA           CLOUDY    47  46  96 CALM      30.13R
ANN ARBOR      PTCLDY    50  46  86 NE5       30.10R
BAD AXE        CLOUDY    51  51  98 N6        30.12R
6HR MIN TEMP:  44; 6HR MAX TEMP:  52;

DETROIT CITY   CLEAR     55  49  80 N9        30.10R
6HR MIN TEMP:  52; 6HR MAX TEMP:  56;

DETROIT        PTCLDY    50  47  89 N5        30.11R
6HR MIN TEMP:  49; 6HR MAX TEMP:  53;

FLINT          CLEAR     47  43  86 CALM      30.13R
6HR MIN TEMP:  44; 6HR MAX TEMP:  50;

GROSSE ILE     CLEAR     52  46  82 N3        30.09R
HILLSDALE      CLEAR     47  47  99 N5        30.10R
6HR MIN TEMP:  41; 6HR MAX TEMP:  47;

HOWELL         CLEAR     45  45  99 CALM      30.11R FOG
6HR MIN TEMP:  43; 6HR MAX TEMP:  46;


CITY           SKY/WX    TMP DP  RH WIND       PRES   REMARKS
JACKSON        CLEAR     42  40  92 CALM      30.12R
6HR MIN TEMP:  40; 6HR MAX TEMP:  44;

LAMBERTVILLE   CLEAR     43  41  93 CALM      30.10R FOG
LANSING        CLEAR     44  43  96 CALM      30.12R FOG
6HR MIN TEMP:  42; 6HR MAX TEMP:  46;

LAPEER         NOT AVBL
MASON          MOCLDY    47  46  98 CALM      30.11R FOG
MONROE         CLEAR     46  45  93 N3        30.08R
MT. CLEMENS    PTCLDY    51  48  90 N7        30.08R
6HR MIN TEMP:  49; 6HR MAX TEMP:  52;

PONTIAC        CLEAR     49  46  90 N6        30.10R
6HR MIN TEMP:  48; 6HR MAX TEMP:  53;

PORT HOPE        N/A     53  48  83 NE18      30.11R
6HR MIN TEMP:  53; 6HR MAX TEMP:  57;

PORT HURON     CLEAR     48  48 100 NW5       30.10R
TRI CITIES     CLOUDY    53  49  86 N9        30.14R
6HR MIN TEMP:  48; 6HR MAX TEMP:  53;

YPSILANTI      CLEAR     52  45  77 CALM      30.11R
6HR MIN TEMP:  50; 6HR MAX TEMP:  54;

$$
MIZ043>046-050>051-056>058-064>065-071>073-077>080-181300-
SOUTHWEST LOWER MICHIGAN

CITY           SKY/WX    TMP DP  RH WIND       PRES   REMARKS
BATTLE CREEK   CLEAR     45  42  89 CALM      30.12R
6HR MIN TEMP:  43; 6HR MAX TEMP:  47;

BENTON HARBOR  PTCLDY    40  40 100 E3        30.10R
6HR MIN TEMP:  40; 6HR MAX TEMP:  43;

BIG RAPIDS     CLOUDY    49  49 100 NE3       30.12R
6HR MIN TEMP:  43; 6HR MAX TEMP:  49;

COLDWATER      FOG       43  42  97 CALM      30.11R VSB 1/4
6HR MIN TEMP:  42; 6HR MAX TEMP:  46;

HOLLAND        CLOUDY    50  47  89 CALM      30.11R
6HR MIN TEMP:  44; 6HR MAX TEMP:  50;

GRAND RAPIDS   PTCLDY    45  42  89 N6        30.12R
6HR MIN TEMP:  43; 6HR MAX TEMP:  48;

KALAMAZOO      CLEAR     44  41  89 CALM      30.11R
6HR MIN TEMP:  41; 6HR MAX TEMP:  45;

MARSHALL       CLEAR     39  38  98 CALM      30.11R FOG
MUSKEGON       CLOUDY    50  46  86 VRB3      30.11R
6HR MIN TEMP:  46; 6HR MAX TEMP:  50;

$$
MIZ016>042-181300-
NORTHERN LOWER MICHIGAN

CITY           SKY/WX    TMP DP  RH WIND       PRES   REMARKS
ALPENA         CLOUDY    45  38  76 NE9       30.18R
6HR MIN TEMP:  45; 6HR MAX TEMP:  49;

BEAVER ISLAND  CLOUDY    45  39  79 NE6       30.19R
BELLAIRE       CLOUDY    48  42  80 NE6       30.17R
6HR MIN TEMP:  48; 6HR MAX TEMP:  51;

CADILLAC       CLOUDY    48  47  99 NE5       30.12S
CHARLEVOIX     CLOUDY    47  41  80 E9        30.21R
6HR MIN TEMP:  47; 6HR MAX TEMP:  50;

FRANKFORT      CLOUDY    52  45  76 E5        30.14R
GAYLORD        CLOUDY    43  41  93 NE6       30.16R
6HR MIN TEMP:  43; 6HR MAX TEMP:  47;

GRAYLING       CLOUDY    46  46 100 NE8       30.16R FOG
6HR MIN TEMP:  46; 6HR MAX TEMP:  49;

HARBOR SPRINGS CLOUDY    45  38  75 NE7       30.19R
HOUGHTON LAKE  CLOUDY    47  45  93 NE7       30.15R FOG
6HR MIN TEMP:  42; 6HR MAX TEMP:  48;

MANISTEE       CLOUDY    50  43  76 NE5       30.14S
OSCODA         LGT RAIN  47  46  97 NE12      30.15R
PELLSTON       CLOUDY    44  38  79 NE5       30.20R
6HR MIN TEMP:  44; 6HR MAX TEMP:  47;

TRAVERSE CITY  CLOUDY    50  44  80 E5        30.14R
6HR MIN TEMP:  50; 6HR MAX TEMP:  54;

$$
MIZ007>008-015-181300-
EASTERN UPPER MICHIGAN

CITY           SKY/WX    TMP DP  RH WIND       PRES   REMARKS
KINROSS        MOCLDY    36  34  93 NE6       30.21R
6HR MIN TEMP:  36; 6HR MAX TEMP:  41;

MACKINAC ISLAN CLOUDY    42  36  77 NE13      30.19R
6HR MIN TEMP:  42; 6HR MAX TEMP:  45;

NEWBERRY       CLEAR     33  32  96 N5        30.20R
S. S. MARIE    CLOUDY    37  33  85 NE6       30.21R
6HR MIN TEMP:  36; 6HR MAX TEMP:  40;

$$
MIZ004>006-011>014-085-181300-
CENTRAL UPPER MICHIGAN

CITY           SKY/WX    TMP DP  RH WIND       PRES   REMARKS
MANISTIQUE     CLOUDY    40  35  84 NE3       30.20R
ESCANABA       CLEAR     39  34  81 NE5       30.20R
6HR MIN TEMP:  39; 6HR MAX TEMP:  43;

MENOMINEE      MOCLDY    41  34  75 N7        30.18S
6HR MIN TEMP:  41; 6HR MAX TEMP:  45;

SAWYER-GWINN   CLOUDY    41  36  81 CALM      30.19R
$$
MIZ001>003-009>011-084-181300-
WESTERN UPPER MICHIGAN

CITY           SKY/WX    TMP DP  RH WIND       PRES   REMARKS
IRON MOUNTAIN  MOCLDY    40  32  73 NE3       30.18R
6HR MIN TEMP:  40; 6HR MAX TEMP:  41;

HOUGHTON       CLOUDY    37  30  75 NE6       30.18S
6HR MIN TEMP:  33; 6HR MAX TEMP:  39;

COPPER HARBOR    N/A     33  30  88 SW5       30.21R
6HR MIN TEMP:  33; 6HR MAX TEMP:  45;

IRONWOOD       CLOUDY    39  36  87 SE8       30.14F
6HR MIN TEMP:  37; 6HR MAX TEMP:  43;

$$

ABBREVIATIONS USED IN REMARKS
   TC - TEMPERATURE IN CELSIUS
  WCI - WIND CHILL INDEX
   HX - HEAT INDEX
  VSB - VISIBILITY



USA.gov is the U.S. government's official web portal to all federal, state and local government web resources and services.